Ontario, OR

11:15 PM MDT on April 21, 2018 (GMT -0600)
Ontario Municipal

Weather History for KONO - December, 2013

Change the Weather History Date:

Wednesday, December 25, 2013

  Actual Average Record
Temperature  
Mean Temperature 14 °F 26 °F  
Max Temperature 24 °F 34 °F 51 °F (1964)
Min Temperature 4 °F 19 °F -7 °F (1985)
Degree Days  
Heating Degree Days 51 39  
Month to date heating degree days 1119 922  
Since 1 July heating degree days 2514 2350  
Cooling Degree Days 0 0  
Month to date cooling degree days 0 0  
Year to date cooling degree days 1299 852  
Moisture  
Dew Point 7 °F    
Average Humidity 85    
Maximum Humidity 92    
Minimum Humidity 77    
Precipitation  
Precipitation 0.00 in 0.06 in 0.86 in (1980)
Month to date precipitation 0.45 1.34  
Year to date precipitation 5.28 9.72  
Sea Level Pressure  
Sea Level Pressure 30.68 in    
Wind  
Wind Speed 3 mph (WSW)    
Max Wind Speed 8 mph    
Max Gust Speed 9 mph    
Visibility 6 miles    
Events Fog    
T = Trace of Precipitation, MM = Missing Value Source: NWS Daily Summary

Daily Weather History Graph

Daily Weather History Graph

Search for Another Location

Airport or City:

Astronomy

Dec. 25, 2013 Rise Set
Actual Time 8:21 AM MST 5:15 PM MST
Civil Twilight 7:48 AM MST 5:48 PM MST
Nautical Twilight 7:11 AM MST 6:24 PM MST
Astronomical Twilight 6:36 AM MST 7:00 PM MST
Moon 12:42 AM MST (12/25) 12:31 PM MST (12/25)
Length of Visible Light 10h 00m
Length of Day
8h 53m
Waning Gibbous, 48% of the Moon is Illuminated
Dec 25
Waning Gibbous
Jan 1
New
Jan 7
First Quarter
Jan 15
Full
Jan 23
Last Quarter

Hourly Weather History & Observations

Time (MST) Temp. Windchill Dew Point Humidity Pressure Visibility Wind Dir Wind Speed Gust Speed Precip Events Conditions
12:53 AM 12.0 °F 1.5 °F 9.0 °F 88% 30.71 in 10.0 mi West 6.9 mph - N/A   Clear
1:53 AM 10.9 °F 1.4 °F 7.0 °F 84% 30.72 in 10.0 mi WSW 5.8 mph - N/A   Clear
2:53 AM 9.0 °F -0.9 °F 5.0 °F 84% 30.72 in 10.0 mi WSW 5.8 mph - N/A   Clear
3:53 AM 9.0 °F 0.6 °F 5.0 °F 84% 30.72 in 10.0 mi WSW 4.6 mph - N/A   Clear
4:53 AM 9.0 °F - 6.1 °F 88% 30.72 in 10.0 mi Calm Calm - N/A   Clear
5:53 AM 7.0 °F - 3.0 °F 84% 30.74 in 10.0 mi Calm Calm - N/A   Clear
6:21 AM 6.1 °F - 1.9 °F 83% 30.62 in 10.0 mi Calm Calm - N/A   Scattered Clouds
6:29 AM 7.0 °F - 3.9 °F 87% 30.62 in 5.0 mi Calm Calm - N/A   Mostly Cloudy
6:32 AM 6.1 °F - 3.0 °F 87% 30.62 in 2.0 mi Calm Calm - N/A   Mostly Cloudy
6:36 AM 3.9 °F -3.4 °F 1.9 °F 91% 30.62 in 1.0 mi WNW 3.5 mph - N/A   Mist
6:46 AM 5.0 °F - 1.9 °F 87% 30.62 in 0.5 mi Calm Calm - N/A Fog Light Freezing Fog
6:53 AM 6.1 °F - 3.0 °F 87% 30.75 in 0.2 mi Calm Calm - N/A Fog Light Freezing Fog
7:01 AM 6.1 °F - 3.9 °F 91% 30.62 in 1.2 mi Calm Calm - N/A   Overcast
7:19 AM 7.0 °F - 3.0 °F 84% 30.62 in 3.0 mi Calm Calm - N/A   Mostly Cloudy
7:22 AM 7.0 °F - 3.9 °F 87% 30.63 in 1.8 mi Calm Calm - N/A   Mostly Cloudy
7:26 AM 8.1 °F - 5.0 °F 87% 30.63 in 0.8 mi Calm Calm - N/A   Mist
7:34 AM 8.1 °F - 6.1 °F 92% 30.63 in 1.2 mi Calm Calm - N/A   Mostly Cloudy
7:37 AM 8.1 °F - 6.1 °F 92% 30.63 in 2.5 mi Calm Calm - N/A   Mostly Cloudy
7:48 AM 6.8 °F - 3.2 °F 85% 30.63 in 2.0 mi Calm Calm - N/A   Overcast
7:51 AM 6.8 °F - 3.2 °F 85% 30.63 in 3.0 mi Calm Calm - N/A   Overcast
7:53 AM 7.0 °F - 3.9 °F 87% 30.76 in 3.0 mi Calm Calm - N/A   Overcast
7:55 AM 7.0 °F - 3.9 °F 87% 30.63 in 1.0 mi Calm Calm - N/A   Mist
8:02 AM 7.0 °F - 3.9 °F 87% 30.63 in 0.5 mi Calm Calm - N/A Fog Light Freezing Fog
8:07 AM 7.0 °F - 3.9 °F 87% 30.63 in 2.0 mi Calm Calm - N/A   Overcast
8:14 AM 8.1 °F - 3.9 °F 83% 30.63 in 10.0 mi Calm Calm - N/A   Overcast
8:25 AM 8.1 °F - 3.9 °F 83% 30.64 in 1.0 mi Calm Calm - N/A   Mist
8:32 AM 8.1 °F - 5.0 °F 87% 30.64 in 0.2 mi Calm Calm - N/A Fog Light Freezing Fog
8:53 AM 7.0 °F - 5.0 °F 92% 30.77 in 0.8 mi Calm Calm - N/A   Mist
8:59 AM 7.0 °F - 3.9 °F 87% 30.64 in 1.2 mi Calm Calm - N/A   Overcast
9:02 AM 7.0 °F - 3.0 °F 84% 30.64 in 4.0 mi Calm Calm - N/A   Overcast
9:10 AM 7.0 °F 0.1 °F 3.0 °F 84% 30.64 in 1.8 mi WSW 3.5 mph - N/A   Overcast
9:15 AM 6.1 °F -0.9 °F 3.9 °F 91% 30.64 in 0.8 mi West 3.5 mph - N/A   Mist
9:23 AM 7.0 °F - 5.0 °F 92% 30.65 in 1.2 mi Calm Calm - N/A   Overcast
9:26 AM 7.0 °F - 3.9 °F 87% 30.65 in 3.0 mi Calm Calm - N/A   Overcast
9:53 AM 9.0 °F 2.4 °F 6.1 °F 88% 30.78 in 10.0 mi SW 3.5 mph - N/A   Mostly Cloudy
10:07 AM 9.0 °F 2.4 °F 6.1 °F 88% 30.66 in 10.0 mi West 3.5 mph - N/A   Scattered Clouds
10:53 AM 12.9 °F - 10.9 °F 92% 30.80 in 10.0 mi Calm Calm - N/A   Clear
11:53 AM 15.1 °F - 12.0 °F 88% 30.78 in 10.0 mi Calm Calm - N/A   Clear
12:53 PM 19.0 °F 13.9 °F 14.0 °F 81% 30.75 in 10.0 mi West 3.5 mph - N/A   Clear
1:53 PM 19.9 °F 14.9 °F 16.0 °F 85% 30.71 in 10.0 mi South 3.5 mph - N/A   Clear
2:53 PM 23.0 °F - 18.0 °F 81% 30.71 in 10.0 mi Calm Calm - N/A   Clear
3:53 PM 23.0 °F 18.4 °F 17.1 °F 78% 30.70 in 10.0 mi West 3.5 mph - N/A   Clear
4:53 PM 21.9 °F 15.7 °F 17.1 °F 82% 30.67 in 10.0 mi SSE 4.6 mph - N/A   Clear
5:53 PM 18.0 °F 11.1 °F 12.9 °F 81% 30.68 in 10.0 mi WSW 4.6 mph - N/A   Clear
6:53 PM 16.0 °F 8.8 °F 12.0 °F 84% 30.70 in 10.0 mi WSW 4.6 mph - N/A   Clear
7:53 PM 15.1 °F 4.2 °F 10.9 °F 84% 30.71 in 10.0 mi WSW 8.1 mph - N/A   Clear
8:53 PM 14.0 °F 6.5 °F 10.9 °F 88% 30.71 in 10.0 mi WSW 4.6 mph - N/A   Clear
9:53 PM 14.0 °F 5.1 °F 10.9 °F 88% 30.70 in 10.0 mi SW 5.8 mph - N/A   Clear
10:53 PM 14.0 °F 6.5 °F 10.0 °F 84% 30.69 in 10.0 mi SSW 4.6 mph - N/A   Clear
11:53 PM 12.0 °F 4.1 °F 8.1 °F 84% 30.70 in 10.0 mi SW 4.6 mph - N/A   Clear